Accueil
METAR-TAF:

METAR-TAF

Aéroports :

Hartford, Connecticut, États-Unis

latitude: 41-44-06N, longitude: 072-39-06W, altitude: 5 m

Observation

Le bulletin a été fait il y a 46 minutes, à 11:53 UTC
Vent 6 kt de nord
Température 11°C
Humidité 87%
Pression 1032 hPa
Visibilité: 9.7 km
Ciel couvert à une hauteur de 2900 ft
pluie faible, brume

METAR: KHFD 251153Z 35006KT 6SM -RA BR OVC029 11/09 A3047 RMK AO2 SLP316 P0002 60004 70004 T01060094 10111 20100 58013

Heure: 08:39 (12:39 UTC)


TAF: absent

Observations et prévisions météorologiques de plus de 4000 aéroports (messages METAR et TAF).

Les stations disponibles sont représentées par des disques jaunes et rouges sur la carte.

Passer la souris dessus pour voir le nom de la station.

Cliquer dessus pour voir les observations et prévisions météorologiques.

Pour changer de carte: cliquez sur les boutons verts avec une croix noire pour zoomer, sur le bouton vert avec un tiret pour effectuer un zoom arrière, ou sur les flèches vertes pour les cartes adjacentes.


METAR-TAF: